This is the latest recevied weather packets stored in our database for station/object N0TKN. If no packets are shown the sender has not sent any weather packets the latest 1 day(s).
| Time | Temp. | Humidity | Pressure | Rain* | Wind** | Luminosity | Snow |
|---|---|---|---|---|---|---|---|
| 1778037316 | 6.67° C | 99% | 1012.6 hPa | 1.27 mm | 0 m/s | 0 W/m² | - |
| 1778036717 | 7.22° C | 99% | 1012.7 hPa | 1.27 mm | 0 m/s | 0 W/m² | - |
| 1778036116 | 7.22° C | 99% | 1012.7 hPa | 1.27 mm | 0 m/s | 0 W/m² | - |
| 1778035518 | 6.67° C | 99% | 1012.8 hPa | 1.02 mm | 0 m/s | 0 W/m² | - |
| 1778034922 | 6.67° C | 99% | 1012.6 hPa | 1.02 mm | 0 m/s | 0 W/m² | - |
| 1778034318 | 6.67° C | 99% | 1012.5 hPa | 1.02 mm | 0.89 m/s, 177° | 0 W/m² | - |
| 1778033718 | 6.67° C | 99% | 1012.3 hPa | 2.03 mm | 0 m/s | 0 W/m² | - |
| 1778033117 | 6.67° C | 99% | 1011.9 hPa | 2.54 mm | 0 m/s | 0 W/m² | - |
| 1778032518 | 6.67° C | 99% | 1011.6 hPa | 3.05 mm | 0.45 m/s, 36° | 0 W/m² | - |
| 1778031918 | 6.67° C | 99% | 1011.5 hPa | 3.05 mm | 0 m/s | 0 W/m² | - |
| 1778031318 | 6.67° C | 99% | 1011.6 hPa | 3.3 mm | 0 m/s | 0 W/m² | - |
| 1778030718 | 6.67° C | 99% | 1011.6 hPa | 2.79 mm | 0 m/s | 0 W/m² | - |
| 1778030128 | 6.67° C | 100% | 1011.9 hPa | 2.03 mm | 0 m/s | 1 W/m² | - |
| 1778029515 | 6.67° C | 100% | 1011.9 hPa | 1.78 mm | 0 m/s | 1 W/m² | - |
| 1778028915 | 6.67° C | 100% | 1011.7 hPa | 1.52 mm | 0 m/s | 1 W/m² | - |
| 1778028316 | 6.67° C | 99% | 1011.5 hPa | 1.52 mm | 0 m/s | 2 W/m² | - |
| 1778027721 | 6.67° C | 99% | 1011.7 hPa | 1.27 mm | 0 m/s | 5 W/m² | - |
| 1778027116 | 6.67° C | 99% | 1011.6 hPa | 1.52 mm | 0.45 m/s, 55° | 6 W/m² | - |
| 1778026517 | 6.67° C | 100% | 1011.4 hPa | 1.52 mm | 0.89 m/s, 50° | 9 W/m² | - |
| 1778025917 | 7.22° C | 99% | 1011.5 hPa | 1.27 mm | 0.45 m/s, 41° | 8 W/m² | - |
| 1778025317 | 7.22° C | 99% | 1011 hPa | 1.02 mm | 0.89 m/s, 48° | 8 W/m² | - |
| 1778024717 | 7.22° C | 99% | 1011.2 hPa | 0.76 mm | 0.89 m/s, 45° | 16 W/m² | - |
| 1778024117 | 7.22° C | 100% | 1011.4 hPa | 0.76 mm | 0 m/s | 19 W/m² | - |
| 1778023517 | 7.22° C | 99% | 1011.5 hPa | 0.51 mm | 0.45 m/s, 16° | 23 W/m² | - |
| 1778022917 | 7.22° C | 99% | 1011 hPa | 0.25 mm | 1.34 m/s, 41° | 33 W/m² | - |
* Rain latest hour (hover to see other rain measurements)
** Current wind speed in m/s (hover to see current wind gust speed)